Regional Weather Roundup
Issued by NWS Cleveland, OH

Home | Current Version | Previous Version | Text Only | Print | Product List | Glossary Off
Versions: 1 2 3 4 5 6 7 8 9 10 11 12 13 14 15 16 17 18 19 20 21 22 23 24 25 26 27 28 29 30 31 32 33 34 35 36 37 38 39 40 41 42 43 44 45 46 47 48 49 50

000
ASUS41 KCLE 020810
RWRCLE
OHIO REGIONAL WEATHER ROUNDUP
NATIONAL WEATHER SERVICE CLEVELAND, OH
400 AM EDT SAT AUG 02 2014

NOTE: "FAIR" INDICATES FEW OR NO CLOUDS BELOW 12,000 FEET WITH NO
SIGNIFICANT WEATHER AND/OR OBSTRUCTIONS TO VISIBILITY.

OHZ001>008-015>018-024>027-034-035-043-044-020900-
   NORTHWEST OHIO

CITY           SKY/WX    TMP DP  RH WIND       PRES   REMARKS
DEFIANCE       CLOUDY    66  57  72 N5        30.08F
FINDLAY        LGT RAIN  67  60  78 NW10      30.07S
TOLEDO EXPRESS CLOUDY    64  60  87 NW5       30.08F
TOLEDO EXEC    MOCLDY    63  58  83 NW10      30.09S
LIMA           CLOUDY    67  62  84 W14       30.10R THUNDER
$$

OHZ009>014-019>023-028>033-038-089-020900-
   NORTHEAST OHIO

CITY           SKY/WX    TMP DP  RH WIND       PRES   REMARKS
CLE-HOPKINS    CLEAR     66  62  87 CALM      30.10S
CLE-LAKEFRONT  CLEAR     71  61  70 CALM      30.07S
CUY CO. ARPT   NOT AVBL
LORAIN-ELYRIA  CLEAR     64  59  83 CALM      30.08F
ASHTABULA      CLEAR     64  62  93 SE7       30.11R
AKRON-CANTON   MOCLDY    66  61  84 SE5       30.09F
WOOSTER        FOG       59  57  93 CALM      30.09F VSB 1/4
MANSFIELD      PTCLDY    61  59  93 S3        30.09F
YOUNGSTOWN     PTCLDY    61  59  93 E6        30.10F FOG
$$

OHZ042-051>053-060>062-070>072-077>081-020900-
  SOUTHWEST OHIO

CITY           SKY/WX    TMP DP  RH WIND       PRES   REMARKS
CINC-COVINGTON MOCLDY    68  60  75 CALM      30.06F THUNDER
CINC-LUNKEN    PTCLDY    63  62  97 CALM      30.06S FOG
HAMILTON       MOCLDY    63  61  93 CALM      30.06F
DAYTON         CLOUDY    65  60  84 N7        30.08F
WRIGHT-PAT AFB CLOUDY    67  62  84 N9        30.07S
DAYTON GENERAL PTCLDY    66  61  84 CALM      30.07S
WILMINGTON     CLEAR     65  61  87 NW7       30.07S
$$

OHZ036-037-039>041-045>050-054>059-063>069-073>076-082>088-020900-
  CENTRAL AND SOUTHEAST OHIO

CITY           SKY/WX    TMP DP  RH WIND       PRES   REMARKS
COLUMBUS       CLEAR     70  62  76 CALM      30.06F
OSU AIRPORT    PTCLDY    65  62  90 E3        30.06F
BOLTON FIELD   PTCLDY    64  63  97 E3        30.06F
RICKENBACK AFB CLEAR     66  60  80 E3        30.06S HAZE
NEWARK         PTCLDY    64  61  90 CALM      30.07F FOG
MARION         PTCLDY    63  59  87 NE5       30.07F FOG
LANCASTER      PTCLDY    61  59  93 CALM      30.07S FOG
ZANESVILLE     CLOUDY    67  63  87 CALM      30.09S
NEW PHILLY     PTCLDY    63  62  97 CALM      30.09F FOG
$$


USA.gov is the U.S. government's official web portal to all federal, state and local government web resources and services.